When you browse on this site, cookies collect data to enhance your experience and personalize the content and advertising you see.
Visit our Privacy Policy to learn more. By continuing to use the site, you agree to this use of cookies and data.
  • In Spain
  • List of Countries
  • For 7 days
  • Water Temperature
  • Weather Map
  • Weather Widgets
  • user-avatar
    Login

    Hourly Weather Kitzbuhel

    Today, 7 April, Tuesday

    Time Temperature Precipitation Wind Pressure Humidity
    00:00 +5°C° 0 mm 2 mps 684 mmHg 71%
    01:00 +5°C° 0 mm 2 mps 684 mmHg 70%
    02:00 +5°C° 0 mm 2 mps 684 mmHg 71%
    03:00 +5°C° 0 mm 1 mps 684 mmHg 71%
    04:00 +5°C° 0 mm 1 mps 684 mmHg 72%
    05:00 +6°C° 0 mm 1 mps 684 mmHg 71%
    06:00 +7°C° 0 mm 1 mps 685 mmHg 70%
    07:00 +8°C° 0 mm 1 mps 685 mmHg 69%
    08:00 +10°C° 0 mm 1 mps 685 mmHg 64%
    09:00 +13°C° 0 mm 1 mps 686 mmHg 58%
    10:00 +15°C° 0 mm 1 mps 686 mmHg 53%
    11:00 +16°C° 0 mm 1 mps 686 mmHg 50%
    12:00 +18°C° 0 mm 1 mps 686 mmHg 47%
    13:00 +19°C° 0 mm 1 mps 686 mmHg 45%
    14:00 +19°C° 0 mm 1 mps 685 mmHg 46%
    15:00 +17°C° 0 mm 2 mps 685 mmHg 47%
    16:00 +17°C° 0 mm 2 mps 685 mmHg 49%
    17:00 +14°C° 0 mm 1 mps 684 mmHg 60%
    18:00 +12°C° 0 mm 1 mps 684 mmHg 72%
    19:00 +9°C° 0 mm 1 mps 683 mmHg 83%
    20:00 +9°C° 0 mm 1 mps 684 mmHg 82%
    21:00 +7°C° 0 mm 2 mps 684 mmHg 80%
    22:00 +7°C° 0 mm 2 mps 684 mmHg 79%
    23:00 +6°C° 0 mm 2 mps 684 mmHg 76%

    Tomorrow, 8 April, Wednesday

    Time Temperature Precipitation Wind Pressure Humidity
    00:00 +6°C° 0 mm 2 mps 684 mmHg 74%
    01:00 +6°C° 0 mm 2 mps 684 mmHg 71%
    02:00 +5°C° 0 mm 2 mps 684 mmHg 70%
    03:00 +5°C° 0 mm 2 mps 684 mmHg 68%
    04:00 +5°C° 0 mm 2 mps 683 mmHg 67%
    05:00 +6°C° 0 mm 2 mps 683 mmHg 65%
    06:00 +7°C° 0 mm 1 mps 684 mmHg 63%
    07:00 +8°C° 0 mm 1 mps 684 mmHg 61%
    08:00 +11°C° 0 mm 1 mps 684 mmHg 55%
    09:00 +14°C° 0 mm 1 mps 684 mmHg 49%
    10:00 +16°C° 0 mm 0 mps 684 mmHg 44%
    11:00 +18°C° 0 mm 1 mps 684 mmHg 43%
    12:00 +19°C° 0 mm 1 mps 684 mmHg 42%
    13:00 +19°C° 0 mm 1 mps 684 mmHg 41%
    14:00 +18°C° 0 mm 2 mps 683 mmHg 44%
    15:00 +17°C° 0 mm 2 mps 683 mmHg 47%
    16:00 +17°C° 0 mm 2 mps 682 mmHg 50%
    17:00 +14°C° 0.1 mm 1 mps 682 mmHg 63%
    18:00 +12°C° 0.1 mm 1 mps 681 mmHg 76%
    19:00 +9°C° 0.1 mm 0 mps 681 mmHg 89%
    20:00 +8°C° 0.1 mm 0 mps 681 mmHg 89%
    21:00 +8°C° 0.1 mm 0 mps 681 mmHg 90%
    22:00 +9°C° 0.1 mm 1 mps 682 mmHg 90%
    23:00 +8°C° 0 mm 1 mps 681 mmHg 91%

    Day after tomorrow, 9 April, Thursday

    Time Temperature Precipitation Wind Pressure Humidity
    00:00 +8°C° 0 mm 1 mps 681 mmHg 91%
    01:00 +8°C° 0 mm 1 mps 681 mmHg 91%
    02:00 +8°C° 0 mm 1 mps 681 mmHg 92%
    03:00 +8°C° 0 mm 1 mps 681 mmHg 92%
    04:00 +8°C° 0 mm 1 mps 681 mmHg 92%
    05:00 +7°C° 0 mm 0 mps 681 mmHg 90%
    06:00 +8°C° 0 mm 0 mps 681 mmHg 88%
    07:00 +9°C° 0 mm 0 mps 681 mmHg 85%
    08:00 +11°C° 0.2 mm 1 mps 681 mmHg 79%
    09:00 +13°C° 0.2 mm 1 mps 682 mmHg 74%
    10:00 +14°C° 0.2 mm 1 mps 682 mmHg 68%
    11:00 +15°C° 0.3 mm 1 mps 682 mmHg 67%
    12:00 +15°C° 0.3 mm 1 mps 682 mmHg 67%
    13:00 +15°C° 0.3 mm 2 mps 681 mmHg 66%
    14:00 +15°C° 0.4 mm 2 mps 681 mmHg 68%
    15:00 +15°C° 0.4 mm 2 mps 681 mmHg 71%
    16:00 +14°C° 0.4 mm 2 mps 680 mmHg 73%
    17:00 +13°C° 0.3 mm 1 mps 680 mmHg 78%
    18:00 +12°C° 0.3 mm 1 mps 680 mmHg 84%
    19:00 +10°C° 0.3 mm 1 mps 680 mmHg 89%
    20:00 +9°C° 0 mm 0 mps 681 mmHg 90%
    21:00 +8°C° 0 mm 0 mps 681 mmHg 90%
    22:00 +7°C° 0 mm 0 mps 681 mmHg 91%
    23:00 +7°C° 0 mm 0 mps 681 mmHg 91%

    10 April, Friday

    Time Temperature Precipitation Wind Pressure Humidity
    00:00 +7°C° 0 mm 1 mps 681 mmHg 91%
    01:00 +7°C° 0 mm 1 mps 681 mmHg 92%
    02:00 +6°C° 0 mm 1 mps 681 mmHg 92%
    03:00 +6°C° 0 mm 1 mps 681 mmHg 92%
    04:00 +6°C° 0 mm 1 mps 681 mmHg 91%
    05:00 +7°C° 0 mm 1 mps 681 mmHg 89%
    06:00 +8°C° 0 mm 1 mps 681 mmHg 86%
    07:00 +8°C° 0 mm 1 mps 682 mmHg 83%
    08:00 +11°C° 0 mm 1 mps 682 mmHg 73%
    09:00 +13°C° 0 mm 1 mps 682 mmHg 64%
    10:00 +16°C° 0 mm 1 mps 683 mmHg 54%
    11:00 +18°C° 0 mm 1 mps 683 mmHg 49%
    12:00 +19°C° 0 mm 1 mps 682 mmHg 45%
    13:00 +20°C° 0 mm 1 mps 682 mmHg 41%
    14:00 +19°C° 0 mm 1 mps 682 mmHg 43%
    15:00 +18°C° 0 mm 2 mps 681 mmHg 44%
    16:00 +17°C° 0 mm 2 mps 681 mmHg 46%
    17:00 +15°C° 0 mm 1 mps 680 mmHg 59%
    18:00 +13°C° 0 mm 1 mps 680 mmHg 72%
    19:00 +9°C° 0 mm 0 mps 679 mmHg 85%
    20:00 +10°C° 0 mm 1 mps 679 mmHg 86%
    21:00 +9°C° 0 mm 1 mps 680 mmHg 87%
    22:00 +9°C° 0 mm 1 mps 680 mmHg 87%
    23:00 +9°C° 0 mm 1 mps 680 mmHg 87%

    11 April, Saturday

    Time Temperature Precipitation Wind Pressure Humidity
    00:00 +8°C° 0 mm 1 mps 680 mmHg 88%
    01:00 +8°C° 0 mm 1 mps 680 mmHg 88%
    02:00 +8°C° 0 mm 1 mps 680 mmHg 87%
    03:00 +8°C° 0 mm 1 mps 680 mmHg 87%
    04:00 +7°C° 0 mm 1 mps 679 mmHg 87%
    05:00 +8°C° 0 mm 1 mps 680 mmHg 83%
    06:00 +10°C° 0 mm 1 mps 680 mmHg 79%
    07:00 +11°C° 0 mm 1 mps 680 mmHg 74%
    08:00 +13°C° 0 mm 1 mps 681 mmHg 66%
    09:00 +15°C° 0 mm 1 mps 681 mmHg 57%
    10:00 +19°C° 0 mm 1 mps 681 mmHg 49%
    11:00 +19°C° 0 mm 1 mps 681 mmHg 45%
    12:00 +20°C° 0 mm 1 mps 681 mmHg 41%
    13:00 +20°C° 0 mm 2 mps 681 mmHg 37%
    14:00 +19°C° 0 mm 2 mps 680 mmHg 40%
    15:00 +18°C° 0 mm 2 mps 680 mmHg 43%
    16:00 +18°C° 0 mm 2 mps 680 mmHg 47%
    17:00 +16°C° 0.1 mm 1 mps 679 mmHg 58%
    18:00 +14°C° 0.1 mm 1 mps 679 mmHg 68%
    19:00 +10°C° 0.1 mm 0 mps 678 mmHg 79%
    20:00 +10°C° 0 mm 0 mps 678 mmHg 80%
    21:00 +10°C° 0 mm 0 mps 678 mmHg 82%
    22:00 +10°C° 0 mm 1 mps 679 mmHg 83%
    23:00 +10°C° 0 mm 1 mps 679 mmHg 84%

    12 April, Sunday

    Time Temperature Precipitation Wind Pressure Humidity
    00:00 +10°C° 0 mm 1 mps 679 mmHg 84%
    01:00 +10°C° 0 mm 1 mps 679 mmHg 85%
    02:00 +9°C° 0 mm 1 mps 678 mmHg 86%
    03:00 +9°C° 0 mm 1 mps 678 mmHg 87%
    04:00 +9°C° 0 mm 1 mps 678 mmHg 88%
    05:00 +9°C° 0 mm 1 mps 678 mmHg 85%
    06:00 +10°C° 0 mm 1 mps 678 mmHg 82%
    07:00 +11°C° 0 mm 1 mps 678 mmHg 80%
    08:00 +13°C° 0 mm 1 mps 678 mmHg 71%
    09:00 +14°C° 0 mm 0 mps 678 mmHg 62%
    10:00 +17°C° 0 mm 0 mps 678 mmHg 53%
    11:00 +17°C° 0.4 mm 0 mps 678 mmHg 53%
    12:00 +17°C° 0.4 mm 0 mps 677 mmHg 54%
    13:00 +19°C° 0.4 mm 1 mps 677 mmHg 55%
    14:00 +18°C° 0.8 mm 1 mps 676 mmHg 59%
    15:00 +18°C° 0.8 mm 1 mps 675 mmHg 63%
    16:00 +16°C° 0.8 mm 1 mps 675 mmHg 67%
    17:00 +14°C° 0.3 mm 1 mps 674 mmHg 73%
    18:00 +13°C° 0.3 mm 1 mps 674 mmHg 78%
    19:00 +11°C° 0.3 mm 1 mps 673 mmHg 83%
    20:00 +11°C° 0 mm 1 mps 674 mmHg 85%
    21:00 +9°C° 0 mm 2 mps 674 mmHg 86%
    22:00 +8°C° 0 mm 2 mps 674 mmHg 87%
    23:00 +8°C° 0 mm 2 mps 674 mmHg 87%
    Show more